Simultaneous Nadir Overpasses (SNOs) Predictions

Prediction of SNOs over PacNW region [( 10.00, 139.50) to ( 22.70, 165.60)] between AQUA and NPP Satellites:

Table of predicted SNOs over PacNW region for the next 30.0 days since TLE Epoch: 11/14/2014
Index Date (AQUA) Time (AQUA) AQUA Lat,Lon Date (NPP) Time (NPP) NPP Lat,Lon Distance(km) Time Diff (sec)
1 11/19/2014 02:39:11 10.07, 162.66 11/19/2014 02:41:21 9.78, 161.49 131.35 130
2 11/21/2014 16:19:47 17.20, 141.52 11/21/2014 16:18:16 17.24, 141.45 8.70 91
3 11/27/2014 03:28:42 10.06, 150.28 11/27/2014 03:32:00 9.72, 148.79 167.86 198
4 11/29/2014 15:32:22 10.02, 152.28 11/29/2014 15:29:30 9.96, 152.42 16.25 172
5 12/05/2014 02:39:14 10.09, 162.65 12/05/2014 02:41:11 9.82, 161.43 136.95 117
6 12/07/2014 16:19:55 16.65, 141.41 12/07/2014 16:18:15 16.65, 141.26 16.18 100




NCC Satellite Simultaneous Nadir Overpasses (SNOs) Prediction Service
